User: anonymous   Login
Location: Mississauga
(43.5802°N, 79.6166°W)
Time: 03:51:12
(UTC-04:00)
Language:

Cosmos 1437 Rocket - Orbit

View from above orbital plane
View from above orbital plane
View from above satellite
View from above satellite

Ground track
Ground track

The orbit data is extracted from the following two-line orbital elements,

1 13771U 83003B   15091.43895075  .00003849  00000-0  24605-3 0  9994
2 13771 081.1584 213.4467 0031178 159.7373 200.5097 15.07995504751966
Epoch (UTC): 01 April 2015 10:32:05
Eccentricity: 0.0031178
inclination: 81.1584°
perigee height: 521 km
apogee height: 564 km
right ascension of ascending node: 213.4467°
argument of perigee: 159.7373°
revolutions per day: 15.07995504
mean anomaly at epoch: 200.5097°
orbit number at epoch: 75196

The dashed part of the orbit path shows where the satellite is in the earth's shadow,  

DLR